Regional Weather Roundup
Issued by NWS Sterling, VA

Home | Current Version | Previous Version | Text Only | Print | Product List | Glossary On
Versions: 1 2 3 4 5 6 7 8 9 10 11 12 13 14 15 16 17 18 19 20 21 22 23 24 25 26 27 28 29 30 31 32 33 34 35 36 37 38 39 40 41 42 43 44 45 46 47 48 49 50
000
ASUS41 KLWX 271910
RWRLWX

REGIONAL WEATHER ROUNDUP
NATIONAL WEATHER SERVICE BALTIMORE MD/WASHINGTON DC
300 PM EDT THU AUG 27 2015

Note: "FAIR" indicates few or no clouds below 12,000 feet
with no significant weather and/or obstructions to visibility.
 TC=TEMPERATURE CELSIUS

 * =Non NWS site. Station does not report precipitation (e.g. rain,
    snow, etc.), thunder, or fog.

DCZ001-MDZ009-015-VAZ040>042-051-053>054-272000-
WASHINGTON METRO

CITY           SKY/WX    TMP DP  RH WIND       PRES   REMARKS
WASHINGTON NAT PTSUNNY   79  54  41 VRB5      30.10F
DULLES         PTSUNNY   80  54  40 N8        30.11F
ANDREWS AFB    MOSUNNY   81  51  35 N9        30.08F
FT BELVOIR     MOSUNNY   79  54  42 NW8       30.09F
QUANTICO       PTSUNNY   78  53  41 NW8       30.11F
COLLEGE PARK*  MOSUNNY   81  50  34 W5        30.09S
LEESBURG*      MOSUNNY   79  59  50 NW8       30.12F
MANASSAS*      PTSUNNY   73  55  53 N7        30.11F
GAITHERSBURG*  PTSUNNY   75  54  46 W6        30.14F

$$

MDZ006>007-011-014-272000-
BALTIMORE METRO

CITY           SKY/WX    TMP DP  RH WIND       PRES   REMARKS
BWI AIRPORT    MOSUNNY   79  53  40 NW7       30.09F
MD SCIENCE CTR   N/A     79  53  40 MISG      30.09F
MARTIN STATE   MOSUNNY   79  59  50 NW8       30.11F
ANNAPOLIS      PTSUNNY   77  54  44 CALM      30.09F
FORT MEADE*    CLOUDY    75  54  46 NW6       30.11F

$$

MDZ012-015-019>023-272000-
MARYLAND EASTERN SHORE

CITY           SKY/WX    TMP DP  RH WIND       PRES   REMARKS
OCEAN CITY     CLOUDY    77  60  55 VRB6      30.08S
SALISBURY      PTSUNNY   78  59  51 CALM      30.08F
BAY BRIDGE AP*   N/A     77  52  41 N6        30.10S
CAMBRIDGE*     MOSUNNY   79  54  41 NW6       30.09S
EASTON*        MOSUNNY   81  57  44 N9        30.13S

$$

MDZ017>025-272000-
SOUTHERN MARYLAND

CITY           SKY/WX    TMP DP  RH WIND       PRES   REMARKS
PATUXENT RIVER PTSUNNY   78  59  51 NE7       30.09F
ST INIGOES     MOSUNNY   79  60  52 NE7       30.08F
LEONARDTOWN*   MOSUNNY   79  55  44 CALM      30.10F

$$

MDZ003>005-272000-
NORTH CENTRAL MARYLAND

CITY           SKY/WX    TMP DP  RH WIND       PRES   REMARKS
FREDERICK*     PTSUNNY   79  57  47 N6        30.13F
HAGERSTOWN APT CLOUDY    77  49  37 VRB3      30.12F
WESTMINSTER*   CLOUDY    73  54  49 W6        30.12F

$$

MDZ501>502-272000-
WESTERN MARYLAND

CITY           SKY/WX    TMP DP  RH WIND       PRES   REMARKS
OAKLAND*       CLOUDY    61  50  67 NW5       30.22S
CUMBERLAND*    CLOUDY    73  50  43 N7        30.17F

$$

VAZ025>031-272000-
SHENANDOAH VALLEY

CITY           SKY/WX    TMP DP  RH WIND       PRES   REMARKS
WINCHESTER*    CLOUDY    79  48  34 NW12      30.12F
FRONT ROYAL*   CLOUDY    77  52  41 N5        30.11F
LURAY*         CLOUDY    77  52  41 E5        30.11F
NEW MARKET*    CLOUDY    79  54  42 NE9       30.10F
STAUNTON*      SUNNY     80  52  37 CALM      30.14F
WAYNESBORO*    MOCLDY    77  51  40 CALM      30.13F

$$

WVZ021-048>050-054>055-272000-
EASTERN WEST VIRGINIA PANHANDLE

CITY           SKY/WX    TMP DP  RH WIND       PRES   REMARKS
MARTINSBURG    CLOUDY    76  52  43 NW8       30.12F
PETERSBURG*    MOSUNNY   79  52  38 NE7       30.13F

$$

VAZ036>039-050-272000-
CENTRAL FOOTHILLS

CITY           SKY/WX    TMP DP  RH WIND       PRES   REMARKS
CHARLOTTESVILL MOSUNNY   79  55  43 CALM      30.10F
CULPEPER*      MOSUNNY   77  57  49 N5        30.11F
ORANGE*        PTSUNNY   82  55  39 CALM      30.11F
GORDONSVILLE*  FAIR      80  56  44 CALM      30.09F
WARRENTON*     FAIR      79  59  49 N8        30.10F

$$

VAZ055>057-272000-
NORTH AND CENTRAL PIEDMONT

CITY           SKY/WX    TMP DP  RH WIND       PRES   REMARKS
FREDERICKSBRG* MOSUNNY   80  56  43 NW3       30.09F
STAFFORD*      MOSUNNY   79  55  43 W6        30.14F

$$

NCZ024-NYZ072-PAZ021-071-VAZ022-071-272000-
OTHER REGIONAL OBSERVATIONS

CITY           SKY/WX    TMP DP  RH WIND       PRES   REMARKS
NEW YORK CITY  MOSUNNY   80  51  36 CALM      30.07F
PHILADELPHIA   PTSUNNY   79  51  37 NW15      30.07F
PITTSBURGH     CLOUDY    68  54  60 NW7       30.17F
ROANOKE        MOSUNNY   77  56  48 E7        30.14F
RICHMOND       PTSUNNY   83  56  39 VRB7      30.08F
RALEIGH        PTSUNNY   83  60  45 NE9       30.07F

$$

ANZ530>537-272000-
MARINE OBSERVATIONS

STATION/POSITION TIME  TEMP    WIND        PRES
                       AIR SEA DIR/SP/G
                 (UTC) (F)     (DEG/KT/KT) (MB)
THOMAS PT LIGHT  1900   73      50/  7     1019.4F
BALT KEY BRIDGE  1800   76     300/  6/  7 1019.3F
COVE POINT       1800   72      30/  8/ 12 1020.1F
LEWISETTA        1800   74 78  320/  4/  6 1018.9F
SOLOMONS ISLAND  1800      81                N/A
PINEY POINT      1800          280/  4/  4   N/A

$$



USA.gov is the U.S. government's official web portal to all federal, state and local government web resources and services.